Regional Weather Roundup
Issued by NWS

Home | Current Version | Previous Version | Graphics & Text | Print | Product List | Glossary On
Versions: 1 2 3 4 5 6 7 8 9 10 11 12 13 14 15 16 17 18 19 20 21 22 23 24 25 26 27 28 29 30 31 32 33 34 35 36 37 38 39 40 41 42 43 44 45 46 47 48 49 50
000
ASUS43 KBIS 050110
RWRND

NORTH DAKOTA REGIONAL WEATHER ROUNDUP
NATIONAL WEATHER SERVICE BISMARCK ND
800 PM CDT TUE AUG 04 2015

NOTE: "FAIR" INDICATES FEW OR NO CLOUDS BELOW 12,000 FEET WITH NO
SIGNIFICANT WEATHER AND/OR OBSTRUCTIONS TO VISIBILITY.


NDZ001>003-009>011-017-050200-
NORTHWEST NORTH DAKOTA

CITY           SKY/WX    TMP DP  RH WIND       PRES   REMARKS
WILLISTON      PTSUNNY   86  55  34 SE12      29.87S
MINOT          MOSUNNY   75  52  44 E8        29.94S
MINOT AFB      MOSUNNY   77  55  47 E12       29.93S
$$

NDZ018>021-031>035-040>046-050200-
SOUTHWEST NORTH DAKOTA

CITY           SKY/WX    TMP DP  RH WIND       PRES   REMARKS
BISMARCK       MOSUNNY   81  59  47 SE7       29.93R
DICKINSON      MOSUNNY   78  56  46 SE12      29.91S
GARRISON         N/A     77  60  55 E9        29.93S
HETTINGER ARPT MOSUNNY   80  54  40 SE12G20   29.94R
$$

NDZ004>008-012>016-024-026-027-054-050200-
NORTHEAST NORTH DAKOTA

CITY           SKY/WX    TMP DP  RH WIND       PRES   REMARKS
GRAND FORKS    CLEAR     73  55  53 N5        30.00R
GRND FRKS AFB  CLEAR     72  54  53 N6        30.00S
DEVILS LAKE      N/A    N/A N/A N/A MISG        N/A
$$

NDZ022-023-025-028>030-036>039-047>053-050200-
SOUTHEAST NORTH DAKOTA

CITY           SKY/WX    TMP DP  RH WIND       PRES   REMARKS
FARGO          CLEAR     76  54  46 NE7       29.98S
JAMESTOWN      CLEAR     73  58  59 E8        29.97F
$$



USA.gov is the U.S. government's official web portal to all federal, state and local government web resources and services.